Location: Lombard
(41.8800°N, 88.0080°W)
Time: 07:03:17
(UTC-05:00)

Vanguard 3 - Pass Details

Date: 29 January 2023
Orbit: 508 x 3249 km, 33.4° (Epoch: 27 March)

Event Time Altitude Azimuth Distance (km) Brightness Sun altitude
Exits shadow 03:32:15 18° 193° (SSW) 4,954 10.9 -40.1°
Drops below altitude 10° 03:36:53 10° 178° (S) 5,346 11.2 -39.2°
Sets 03:41:39 0° 166° (SSE) 5,968 11.6 -38.4°
